Helicity
88 69 48 84 47 216 322 266 282 256 176 171 94 111 87 93 113 142 108 102 68 65 91 188 191 196 213 197 174 162 174 184 146 143 161 180 176 139 108 239 303 321 270
154 140 102 125 141 253 304 283 231 169 73 43 61 76 52 95 186 117 109 120 127 121 167 159 175 221 208 173 174 182 168 183 180 181 164 190 204 139 209 171 210 234 220
234 189 151 139 143 297 283 204 151 67 -3 -9 91 192 292 208 174 121 107 153 147 178 163 182 193 187 161 147 150 155 166 240 228 159 223 221 243 252 226 262 206 169 140
179 187 157 161 311 357 219 117 76 39 139 188 189 156 164 255 294 330 323 191 112 110 140 162 194 177 155 145 147 169 225 237 224 234 230 264 269 318 294 211 224 213 220
191 254 171 260 220 178 75 41 112 228 188 228 258 243 353 342 376 408 343 237 189 253 221 238 219 178 168 176 170 163 213 243 263 285 308 302 264 239 298 332 258 194 124
274 262 202 249 333 239 252 279 279 227 244 287 368 443 479 508 528 452 312 316 168 196 199 196 159 141 140 145 174 199 268 308 323 262 237 298 281 288 300 235 169 136 97
211 271 316 392 315 304 257 249 256 292 321 359 374 426 511 480 392 301 193 243 182 180 171 155 135 130 128 132 178 211 260 235 175 155 216 232 163 207 192 160 142 129 87
215 225 296 278 280 217 173 195 281 308 310 310 410 448 351 322 209 173 235 205 209 170 150 134 129 123 119 119 173 191 184 167 125 145 164 194 219 185 168 196 184 101 98
171 224 253 295 263 197 193 232 251 314 311 423 398 290 247 191 229 268 229 222 175 127 161 129 123 115 106 130 182 171 151 124 131 164 173 190 224 140 143 180 131 168 145
177 174 228 286 256 214 230 233 277 346 416 422 303 257 186 229 245 227 195 192 151 154 114 112 108 109 106 101 132 142 126 141 95 93 154 182 177 125 160 164 141 149 144
202 219 236 277 272 254 283 272 315 467 443 350 318 304 176 234 264 168 204 178 155 116 118 106 107 95 86 99 179 183 168 150 118 98 136 133 54 175 161 140 162 162 158
229 261 287 381 362 309 313 318 359 449 397 366 327 250 174 185 196 166 181 168 158 122 127 111 102 106 88 180 156 143 149 139 119 148 174 148 150 170 161 155 179 161 151
210 226 344 450 447 346 378 372 353 399 434 324 275 207 218 168 178 218 184 158 153 138 162 122 116 100 101 147 182 161 159 159 175 162 159 154 164 134 153 177 144 112 117
164 162 308 449 492 427 439 370 388 403 397 307 248 196 198 154 210 205 180 142 139 154 165 117 107 97 100 170 203 224 182 145 139 156 142 136 137 183 152 131 109 116 122
109 138 212 336 403 474 427 384 426 462 453 263 193 172 199 368 249 205 148 151 169 160 121 131 117 107 144 216 270 253 164 166 161 174 146 137 157 125 156 114 105 121 116
73 135 197 271 373 396 370 398 466 503 354 217 221 282 322 198 285 172 153 121 103 128 164 170 134 193 228 230 224 183 159 136 136 143 149 142 119 154 115 92 140 95 122
121 114 172 182 226 272 352 470 496 476 274 340 372 278 236 456 153 113 113 115 113 149 169 153 160 177 288 243 206 164 128 100 112 126 135 120 129 187 167 161 137 93 54
131 116 116 126 183 247 343 395 394 418 349 430 446 454 421 233 150 114 95 84 115 142 145 163 147 181 286 254 205 165 121 96 103 130 102 107 137 160 143 108 76 74 68
136 107 117 154 197 208 304 451 435 459 504 578 711 416 240 193 115 115 95 116 119 121 142 144 145 175 278 241 220 167 129 117 109 105 96 98 122 191 144 87 71 60 62
106 104 128 147 198 339 454 593 695 765 859 888 666 502 182 104 94 81 104 99 105 120 144 200 225 242 264 233 201 159 138 130 110 104 96 155 188 139 89 83 81 71 59
148 172 348 508 611 753 795 904 948 1151 1269 623 302 214 94 80 77 83 84 105 119 118 129 154 170 152 200 201 166 150 144 116 130 110 89 152 133 85 60 68 83 77 75
259 458 661 847 942 919 934 949 1000 624 390 338 152 59 56 74 76 119 121 116 103 106 121 181 200 189 170 232 180 154 120 124 126 96 87 100 82 49 56 64 53 52 56
544 649 706 746 764 707 591 498 451 541 211 36 35 20 14 55 103 112 114 111 101 114 130 157 195 179 143 164 217 174 143 118 118 87 77 67 46 41 68 52 89 82 82
528 514 509 491 492 565 601 330 145 58 45 7 -25 1 62 87 102 103 109 118 143 117 127 133 170 173 151 144 222 181 164 138 121 60 63 82 73 83 87 69 73 110 95
444 357 346 303 250 162 96 51 32 -6 -29 -16 24 62 88 82 85 99 103 160 152 132 113 102 134 160 173 172 188 156 162 170 140 103 111 74 68 73 66 67 84 104 102
226 154 126 91 63 40 57 31 38 37 43 54 78 94 99 99 105 104 128 130 111 118 122 120 128 146 152 165 135 122 123 143 171 138 100 79 57 70 68 67 71 100 115
Wind_Speed
22 24 24 20 20 18 16 14 14 15 14 11 17 19 20 23 26 30 31 33 33 35 38 45 48 49 52 57 59 61 65 67 68 72 70 69 71 68 66 68 70 70 71
25 17 14 12 10 13 14 12 13 11 11 13 14 17 18 21 26 28 29 31 35 38 41 42 47 53 57 61 62 66 67 62 65 70 77 79 75 67 69 70 71 73 73
17 14 12 10 8 9 9 10 10 11 13 15 18 24 25 25 24 23 23 30 36 41 42 47 50 55 57 60 63 63 62 63 64 64 68 83 85 89 76 78 79 78 75
15 13 10 8 8 7 8 10 14 18 19 18 17 17 17 20 26 27 32 33 36 40 46 51 56 56 56 58 60 59 60 62 65 65 65 70 79 93 101 77 75 78 78
12 9 7 5 4 6 13 17 15 16 16 22 20 21 25 23 28 33 38 41 48 50 53 58 62 64 64 62 61 60 56 56 62 67 72 73 73 76 83 96 86 80 73
6 5 7 8 10 11 11 11 13 15 16 18 23 23 25 27 30 38 42 50 50 50 55 60 63 62 62 63 60 57 57 59 65 71 65 69 77 81 79 83 81 82 72
5 7 7 8 10 8 7 8 10 12 15 18 20 22 26 30 33 38 42 51 50 54 58 62 61 63 63 62 58 58 59 60 67 64 63 63 69 67 65 68 76 73 75
8 11 13 12 11 9 8 7 7 9 12 15 19 22 26 31 32 36 45 47 50 54 57 59 63 63 62 60 60 58 57 57 60 61 60 61 63 60 54 59 66 77 73
14 14 13 10 8 6 4 1 3 7 10 15 20 24 28 29 33 40 43 46 49 53 60 61 62 63 65 65 58 59 59 58 60 60 59 55 56 47 48 56 55 64 77
10 9 7 4 2 2 3 5 6 8 12 16 21 26 27 30 34 39 42 46 50 56 58 61 62 63 63 64 62 58 61 65 64 59 57 54 45 39 50 52 57 61 66
4 5 4 3 4 6 7 10 11 12 16 22 24 26 28 31 36 38 42 47 51 55 59 62 63 63 63 61 64 65 65 65 65 61 53 47 38 48 51 52 59 64 68
4 6 5 5 9 12 13 14 15 17 20 24 26 29 29 31 33 39 44 47 51 55 60 62 63 62 62 63 65 68 64 63 63 58 52 45 48 51 54 61 66 68 72
6 10 10 11 14 17 17 18 19 21 24 26 27 31 30 34 36 42 46 49 53 56 59 63 63 63 64 59 58 57 61 62 58 54 52 47 48 53 59 63 68 72 70
16 15 15 17 18 20 20 22 21 23 26 28 35 30 31 32 40 46 49 53 55 56 60 61 62 62 61 58 56 54 60 60 53 47 44 44 49 53 58 62 65 64 68
21 20 21 21 22 23 23 22 22 24 29 35 30 33 34 38 41 46 51 54 55 57 58 59 64 64 63 58 53 56 59 54 48 46 46 48 49 50 51 54 55 58 61
41 34 30 27 25 26 26 23 23 25 33 30 30 36 44 41 48 51 54 56 57 56 55 62 62 60 59 52 49 52 51 47 48 48 49 50 52 46 45 54 51 52 56
47 46 37 34 32 28 25 24 24 27 35 28 33 39 40 50 51 53 58 62 61 59 58 59 59 60 51 46 47 45 46 44 44 47 51 50 51 54 57 61 66 62 53
48 47 41 36 31 28 24 22 23 27 29 33 40 46 49 47 53 59 66 62 64 64 64 62 61 57 48 43 41 40 41 41 44 48 47 47 49 53 58 61 64 57 56
51 48 46 38 32 29 23 22 26 32 31 40 49 48 48 57 59 60 63 64 65 67 65 63 55 52 45 37 36 37 40 43 47 47 45 45 47 49 57 61 59 55 53
55 51 44 37 33 29 29 31 31 36 43 44 45 55 53 59 64 63 63 64 64 64 62 59 56 55 47 34 32 34 39 45 46 44 47 46 46 49 53 55 53 55 52
55 49 43 40 39 40 36 39 39 41 46 49 47 49 53 57 61 67 66 66 67 62 57 59 52 45 39 32 27 29 36 41 42 43 43 41 45 53 56 50 45 41 49
47 45 41 42 45 43 39 43 45 42 44 44 47 51 54 54 55 61 67 71 69 67 62 55 47 42 38 32 24 25 30 35 36 36 36 40 47 51 46 40 35 39 45
49 43 43 44 44 45 45 47 42 42 44 44 51 52 53 56 61 63 66 63 65 66 60 54 49 43 37 32 21 21 26 29 29 28 29 35 38 34 34 35 35 36 40
47 43 47 47 47 46 47 43 40 41 45 47 51 53 61 62 61 62 63 62 63 65 60 54 46 39 34 36 26 24 27 25 23 21 25 28 31 30 28 31 36 39 42
46 48 47 47 47 43 41 37 41 44 49 53 59 59 60 62 63 64 63 60 58 56 53 47 45 39 37 33 33 28 28 23 19 23 30 34 31 34 39 40 39 41 44
45 46 46 43 41 40 43 44 45 48 52 54 55 56 61 64 66 66 65 56 52 46 41 39 37 37 33 31 33 30 30 27 25 26 28 29 27 29 36 37 37 40 45
Wind_Direction
94 96 96 74 97 96 80 65 79 46 49 29 13 28 32 51 50 36 36 31 30 23 12 1 359 356 350 346 343 340 338 336 335 333 332 330 329 329 329 332 328 326 322
119 98 95 79 61 67 70 59 55 56 62 74 62 55 64 50 44 37 31 25 15 8 4 359 353 350 344 340 339 339 337 337 338 334 329 327 326 327 327 327 326 323 322
128 116 111 106 90 51 64 46 59 88 101 86 70 37 38 31 26 26 31 17 5 1 358 352 348 345 343 341 339 339 338 336 337 336 332 327 324 324 328 325 322 320 319
141 132 126 121 42 38 53 70 97 115 56 59 41 32 22 18 20 22 9 6 1 355 352 349 347 345 343 340 339 340 338 337 334 336 334 331 327 323 321 325 324 323 323
154 147 145 115 39 86 120 120 90 45 42 15 32 24 18 20 14 4 357 353 351 350 348 346 345 343 340 339 338 337 336 336 334 333 332 330 329 326 322 320 323 323 324
137 144 130 99 78 77 61 54 50 43 36 22 11 12 9 5 358 351 347 344 343 346 346 345 343 343 341 339 339 338 339 338 336 333 331 331 330 328 327 324 324 323 325
134 133 130 110 104 91 61 62 63 43 30 19 12 7 1 355 348 345 342 341 341 341 341 343 344 342 341 341 341 340 338 336 334 334 332 332 331 332 331 328 325 324 324
104 128 127 121 121 117 114 102 63 33 21 14 6 1 353 346 343 342 341 341 339 340 342 343 342 342 342 341 342 340 337 336 335 333 331 331 334 332 330 332 330 325 324
120 131 132 127 131 138 139 96 14 3 356 353 349 344 342 341 341 342 344 344 344 342 341 342 342 342 342 340 338 338 336 334 333 333 332 330 333 329 334 332 330 327 324
128 145 151 144 162 222 272 295 307 322 338 337 333 334 335 340 341 342 342 343 343 342 341 341 341 341 340 340 339 338 339 338 336 334 331 330 332 333 334 334 331 329 325
164 177 201 228 281 287 287 291 296 307 318 324 326 330 330 335 338 339 341 341 341 341 341 341 340 339 338 339 341 341 341 341 339 337 339 339 336 336 335 334 331 328 327
226 220 243 282 297 294 290 289 295 302 312 320 323 325 326 330 332 336 338 339 338 339 340 340 339 339 339 339 339 338 338 342 342 345 348 343 339 336 335 332 331 329 327
270 255 250 279 295 294 291 295 295 304 315 317 317 321 323 326 330 334 336 336 336 336 339 339 339 338 339 339 341 342 342 343 345 347 347 347 341 336 334 333 330 329 329
305 288 269 277 291 296 293 294 294 305 314 315 318 318 319 322 329 334 335 334 334 334 336 337 338 338 338 339 341 343 342 343 347 351 349 345 340 338 334 332 332 333 332
309 300 293 287 292 297 295 293 296 306 315 315 312 316 323 328 328 329 332 333 333 332 332 334 336 336 338 341 345 343 343 346 349 350 347 344 344 339 339 338 338 338 337
327 320 312 306 298 297 295 295 298 306 315 311 312 325 326 328 331 330 332 332 330 330 332 333 335 339 340 343 348 346 349 351 349 349 349 346 343 348 344 341 343 341 338
328 325 320 313 310 303 299 297 302 311 316 314 321 325 328 333 330 329 332 330 329 330 331 333 334 335 340 347 347 351 353 352 352 351 348 346 344 344 341 340 338 340 342
333 332 329 323 318 316 312 308 310 313 319 324 328 330 330 332 334 330 329 329 329 329 329 330 332 335 340 345 349 352 354 351 351 350 349 347 346 345 344 343 342 345 346
338 335 333 331 330 326 328 329 326 329 335 334 335 332 330 331 332 333 332 331 331 328 328 329 335 338 341 345 349 350 352 351 349 349 350 349 346 348 346 346 347 349 350
337 336 338 338 340 345 343 340 339 339 333 333 338 337 336 332 327 331 334 333 331 331 332 336 338 340 344 347 350 350 351 348 347 350 350 352 353 351 351 350 351 350 353
337 343 350 354 352 349 349 344 342 337 341 336 332 332 333 332 331 328 330 332 332 331 333 332 337 342 346 346 346 348 349 349 349 350 351 356 357 351 350 354 358 360 357
348 352 352 350 349 349 348 342 340 341 337 335 332 331 333 336 336 335 332 332 333 330 333 335 338 343 344 344 344 346 350 353 352 352 354 355 353 353 359 3 5 4 2
351 355 350 347 348 349 348 340 340 342 338 336 331 334 333 334 336 336 336 337 337 335 336 335 336 338 341 342 339 340 346 350 353 358 359 358 359 2 7 10 10 8 7
351 352 348 347 345 347 345 344 342 342 339 337 335 334 334 335 336 336 337 337 340 339 337 337 336 337 340 345 349 346 345 347 352 356 0 4 1 7 12 14 16 15 10
349 350 349 347 343 344 344 345 343 341 337 334 332 334 335 335 335 336 338 340 341 341 338 336 338 336 337 341 346 343 341 343 347 354 352 353 1 4 7 12 16 17 14
350 349 347 350 350 347 344 344 341 338 336 335 335 336 336 336 336 337 338 342 341 339 335 332 329 328 329 332 335 335 337 338 341 341 344 349 355 360 3 8 13 18 16